Find Starlink 30223

NORAD ID: 57603 Int'l Des: 2023-119 Owner: SPXS Country: US Constellation: starlink operational
LEOCIRCULAR

Live-Position

3D-Globus wird geladen...

Über Starlink 30223

Beschreibung wird geladen...

Nächste Überflüge

Passes for default location (London). Set your location on the main map for personalized predictions.

Höhenverlauf

Loading altitude history...

Zweizeiliger Elementsatz

1 57603U 23119B 26125.49973736 -.00029001 00000-0 -17939-2 0 9996
2 57603 43.0011 130.1925 0001162 142.7416 217.3510 15.09066911151653
Epoch: 5. Mai 2026 • Age: 14 hours

Aktueller Status

Höhe 548.4 km
Geschwindigkeit 7.59 km/s
Subsatellitenpunkt -33.30°S, 101.61°E
Startdatum 11. Aug. 2023
Alter 2.7 years
Typ internet

Technische Details

Klassifizierung Payload
Masse 730.00 kg
Trockenmasse 700.00 kg
Gesamtmasse 730.00 kg
Länge 0.30 m
Durchmesser 4.10 m
Spannweite 29.00 m
Form Box + pan
Hersteller SPXS
Bus-Typ Starlink V2M
Phasenstatus In Orbit
Besitzer/Staat SPXS/US

Most Searched